Location: Mahannah Oil Field
(37.4664°N, 96.6003°W)
Time: 06:08:04
(UTC+00:00)

Transit 2A Rocket - Pass Details

Date: 22 January 2021
Orbit: 594 x 909 km, 66.7° (Epoch: 03 March)

Event Time Altitude Azimuth Distance (km) Brightness Sun altitude
Rises 02:43:47 0° 351° (N) 2,913 - -36.5°
Reaches altitude 10° 02:47:36 10° 24° (NNE) 1,959 - -37.2°
Maximum altitude 02:49:13 12° 46° (NE) 1,829 - -37.6°
Drops below altitude 10° 02:50:48 10° 67° (ENE) 1,934 - -37.9°
Sets 02:54:30 0° 101° (E) 2,825 - -38.6°
